Погода в Барятино

Россия / Калужская область     54°18′36″N   34°31′02″E
темп.,
°C
ветер,
м/с
пор.,
м/с
влажн.,
%
обл.,
%
осадки,
мм/ч
давл.,
гПа
погр.,
м
25 июля, вс
вс2500:00+12в22694 0.0 101815
03:00+11всв11775 0.0 101910
06:00+12вюв227536 0.0 101915
09:00+18вюв22596 0.0 1020349
12:00+22вюв115089 0.0 10201054
15:00+23всв124739 0.0 10201271
18:00+20ююв3564100 0.0 1020108
21:00+16ююв34725 0.0 102145
26 июля, пн
пн2600:00+17ююв3467100 0.0 102276
03:00+17ю3466100 0.0 102292
06:00+17ю2276100 0.0 102353
09:00+19ююз2376100 0.0 1023161
12:00+22ююз236536 0.0 1023389
15:00+26всв124467 0.0 10221841
18:00+22ююв236347 0.0 102251
21:00+18ю228211 0.0 102224
27 июля, вт
вт2700:00+17ю228416 0.0 102220
03:00+16юз228617 0.1 102311
06:00+16ююз238615 0.3 102350
09:00+21ю336923 0.3 1022373
12:00+26ююз234914 0.0 10211229
15:00+27юз234267 0.0 10202093
18:00+27юз235116 0.0 1019918
21:00+21юв336737 0.0 101825
28 июля, ср
ср2800:00+18ююв4874100 0.0 1018126
03:00+18ююз3107098 0.0 1018243
06:00+19юв3768100 0.0 1015144
09:00+17вюв3588100 0.6 1015120
12:00+17юв6119297 0.5 1014330
15:00+23ю696895 0.7 10111174
18:00+21юз699198 3.3 1010641
21:00+19з39965 4.4 1009287
29 июля, чт
чт2900:00+17зюз48962 0.0 1010153
03:00+16зюз35960 0.0 101093
06:00+17з39955 0.4 1010200
09:00+21з58767 0.4 1010466
12:00+25зсз685570 0.0 10101797
15:00+27зсз68455 0.0 10102090
18:00+25з59530 0.0 1009874
21:00+21зюз356420 0.0 100979